Weather History for Kimball, NE

Change the Weather History Date:

Wednesday, February 19, 2014

  Actual Average (KSNY) Record (KSNY)
Temperature  
Mean Temperature 40 °F 33 °F  
Max Temperature 54 °F 46 °F 70 °F (1986)
Min Temperature 27 °F 20 °F -11 °F (2006)
Degree Days  
Heating Degree Days 25 32  
Month to date heating degree days 647  
Since 1 July heating degree days 4304  
Cooling Degree Days 0 0  
Month to date cooling degree days 0  
Year to date cooling degree days 0  
Moisture  
Dew Point 26 °F    
Average Humidity 65    
Maximum Humidity 87    
Minimum Humidity 30    
Precipitation  
Precipitation 0.00 in 0.02 in 0.71 in (1953)
Month to date precipitation 0.18  
Year to date precipitation 0.38  
Sea Level Pressure  
Sea Level Pressure 29.66 in    
Wind  
Wind Speed 10 mph (WSW)    
Max Wind Speed 33 mph    
Max Gust Speed 55 mph    
Visibility 9 miles    
Events Snow    
T = Trace of Precipitation, MM = Missing Value Source: NWS Daily Summary

Daily Weather History Graph

Daily Weather History Graph

Search for Another Location

Airport:

Trip Planner

Search our weather history database for the weather conditions in past years. The results will help you decide how hot, cold, wet, or windy it might be!

Date:

Astronomy

Feb. 19, 2014 Rise Set
Actual Time 7:43 AM CST 6:33 PM CST
Civil Twilight 7:15 AM CST 7:01 PM CST
Nautical Twilight 6:43 AM CST 7:34 PM CST
Astronomical Twilight 6:11 AM CST 8:06 PM CST
Moon 11:32 PM CST (2/19) 9:48 AM CST (2/19)
Length of Visible Light 11h 46m
Length of Day
10h 50m
Waning Gibbous, 79% of the Moon is Illuminated
Feb 19
Waning Gibbous
Feb 22
Last Quarter
Mar 1
New
Mar 8
First Quarter
Mar 16
Full

Hourly Weather History & Observations

Time (CST) Temp. Windchill Dew Point Humidity Pressure Visibility Wind Dir Wind Speed Gust Speed Precip Events Conditions
12:15 AM 31.5 °F 22.9 °F 25.7 °F 79% 29.92 in 10.0 mi SSW 10.4 mph - N/A   Clear
12:35 AM 32.0 °F 24.8 °F 25.2 °F 76% 29.91 in 10.0 mi SSW 8.1 mph - N/A   Clear
12:55 AM 32.7 °F 22.5 °F 24.8 °F 73% 29.90 in 10.0 mi SSW 15.0 mph 18.4 mph N/A   Clear
1:15 AM 33.1 °F 22.6 °F 24.8 °F 72% 29.89 in 10.0 mi SSW 16.1 mph - N/A   Clear
1:35 AM 33.8 °F 24.3 °F 23.9 °F 67% 29.89 in 10.0 mi SSW 13.8 mph - N/A   Clear
1:55 AM 32.9 °F 23.2 °F 24.4 °F 71% 29.87 in 10.0 mi South 13.8 mph - N/A   Clear
2:15 AM 33.1 °F 25.5 °F 24.8 °F 72% 29.87 in 10.0 mi South 9.2 mph - N/A   Clear
2:35 AM 32.0 °F 24.8 °F 25.0 °F 75% 29.86 in 10.0 mi South 8.1 mph - N/A   Clear
2:55 AM 31.3 °F - 24.8 °F 77% 29.85 in 10.0 mi Calm Calm - N/A   Clear
3:15 AM 32.2 °F - 24.4 °F 73% 29.84 in 10.0 mi Calm Calm - N/A   Clear
3:35 AM 31.5 °F 26.8 °F 24.6 °F 76% 29.83 in 10.0 mi WSW 4.6 mph - N/A   Clear
3:55 AM 31.8 °F 27.3 °F 24.3 °F 74% 29.82 in 10.0 mi West 4.6 mph - N/A   Clear
4:15 AM 31.1 °F - 23.7 °F 74% 29.81 in 10.0 mi Calm Calm - N/A   Clear
4:35 AM 29.7 °F 23.7 °F 23.5 °F 78% 29.80 in 10.0 mi West 5.8 mph - N/A   Clear
4:55 AM 29.8 °F 23.0 °F 24.1 °F 79% 29.79 in 10.0 mi North 6.9 mph - N/A   Clear
5:15 AM 32.2 °F 24.4 °F 23.9 °F 72% 29.77 in 10.0 mi SSW 9.2 mph - N/A   Clear
5:35 AM 30.6 °F 22.4 °F 24.3 °F 77% 29.77 in 10.0 mi SW 9.2 mph - N/A   Clear
5:55 AM 31.8 °F 23.3 °F 24.1 °F 73% 29.75 in 10.0 mi South 10.4 mph - N/A   Clear
6:15 AM 32.0 °F 21.6 °F 24.4 °F 74% 29.75 in 10.0 mi South 15.0 mph - N/A   Clear
6:35 AM 31.8 °F 21.8 °F 24.8 °F 75% 29.74 in 10.0 mi South 13.8 mph - N/A   Clear
6:55 AM 31.1 °F 21.4 °F 24.8 °F 77% 29.73 in 10.0 mi SSW 12.7 mph - N/A   Clear
7:15 AM 31.1 °F 21.9 °F 25.0 °F 78% 29.73 in 10.0 mi South 11.5 mph - N/A   Clear
7:35 AM 30.9 °F 23.5 °F 25.0 °F 79% 29.72 in 10.0 mi South 8.1 mph - N/A   Clear
7:55 AM 30.7 °F 22.6 °F 25.5 °F 81% 29.72 in 10.0 mi South 9.2 mph - N/A   Clear
8:15 AM 31.5 °F 26.8 °F 26.2 °F 81% 29.71 in 10.0 mi SSW 4.6 mph - N/A   Clear
8:35 AM 32.0 °F 26.4 °F 26.6 °F 80% 29.71 in 10.0 mi South 5.8 mph - N/A   Clear
8:55 AM 32.2 °F 28.9 °F 27.3 °F 82% 29.70 in 10.0 mi SSW 3.5 mph - N/A   Clear
9:15 AM 32.9 °F - 27.3 °F 80% 29.70 in 10.0 mi Calm Calm - N/A   Clear
9:35 AM 34.0 °F 26.0 °F 27.5 °F 77% 29.68 in 10.0 mi South 10.4 mph - N/A   Clear
9:55 AM 35.1 °F 31.0 °F 27.3 °F 73% 29.68 in 10.0 mi SSE 4.6 mph - N/A   Clear
10:15 AM 35.1 °F 27.9 °F 27.5 °F 74% 29.67 in 10.0 mi SSW 9.2 mph - N/A   Clear
10:35 AM 36.5 °F 27.0 °F 28.2 °F 72% 29.65 in 10.0 mi South 16.1 mph - N/A   Clear
10:55 AM 38.5 °F 32.1 °F 28.9 °F 69% 29.66 in 10.0 mi SW 9.2 mph - N/A   Clear
11:15 AM 40.5 °F 35.1 °F 28.0 °F 61% 29.64 in 10.0 mi SW 8.1 mph - N/A   Clear
11:35 AM 41.5 °F 37.1 °F 28.4 °F 60% 29.64 in 10.0 mi SW 6.9 mph - N/A   Scattered Clouds
11:55 AM 42.4 °F 36.5 °F 28.2 °F 57% 29.63 in 10.0 mi SSW 10.4 mph - N/A   Scattered Clouds
12:15 PM 42.6 °F 37.2 °F 28.9 °F 58% 29.62 in 10.0 mi SSW 9.2 mph - N/A   Clear
12:35 PM 44.4 °F 39.5 °F 28.9 °F 55% 29.60 in 10.0 mi SSW 9.2 mph - N/A   Clear
12:55 PM 45.0 °F 42.6 °F 29.7 °F 55% 29.59 in 10.0 mi SW 4.6 mph - N/A   Clear
1:15 PM 45.9 °F 43.6 °F 29.7 °F 53% 29.57 in 10.0 mi WSW 4.6 mph - N/A   Clear
1:35 PM 47.3 °F - 30.0 °F 51% 29.56 in 10.0 mi SSW 5.8 mph - N/A   Clear
1:55 PM 48.0 °F - 29.5 °F 49% 29.53 in 10.0 mi West 5.8 mph - N/A   Clear
2:15 PM 50.4 °F - 26.4 °F 39% 29.53 in 10.0 mi WSW 4.6 mph - N/A   Clear
2:35 PM 50.0 °F - 29.1 °F 45% 29.52 in 10.0 mi SSW 6.9 mph - N/A   Clear
2:55 PM 50.9 °F - 29.7 °F 44% 29.51 in 10.0 mi SSW 3.5 mph - N/A   Clear
3:05 PM 51.8 °F - 28.4 °F 41% 29.50 in 10.0 mi SW 3.5 mph - N/A   Clear
3:15 PM 51.4 °F - 28.4 °F 41% 29.50 in 10.0 mi SW 4.6 mph - N/A   Clear
3:35 PM 51.8 °F - 30.7 °F 45% 29.49 in 10.0 mi Calm Calm - N/A   Scattered Clouds
3:55 PM 51.8 °F - 30.2 °F 44% 29.49 in 10.0 mi South 5.8 mph - N/A   Mostly Cloudy
4:15 PM 53.8 °F - 22.5 °F 30% 29.48 in 10.0 mi Calm Calm - N/A   Overcast
4:35 PM 52.5 °F - 26.8 °F 37% 29.48 in 10.0 mi West 4.6 mph - N/A   Overcast
4:55 PM 51.3 °F - 24.8 °F 36% 29.47 in 10.0 mi NW 6.9 mph 23.0 mph N/A   Mostly Cloudy
5:15 PM 52.7 °F - 25.0 °F 34% 29.46 in 10.0 mi Calm Calm - N/A   Scattered Clouds
5:35 PM 49.5 °F - 28.0 °F 44% 29.46 in 10.0 mi Calm Calm - N/A   Scattered Clouds
5:55 PM 47.7 °F - 29.3 °F 49% 29.46 in 5.0 mi NNW 6.9 mph - N/A   Haze
6:15 PM 50.2 °F - 22.3 °F 34% 29.48 in 10.0 mi West 33.4 mph 55.2 mph N/A   Overcast
6:35 PM 41.2 °F 31.4 °F 29.8 °F 64% 29.51 in 10.0 mi WNW 23.0 mph 34.5 mph N/A   Overcast
6:55 PM 41.5 °F 34.6 °F 28.2 °F 59% 29.53 in 10.0 mi NW 12.7 mph 24.2 mph N/A   Overcast
7:15 PM 41.4 °F 33.0 °F 28.4 °F 60% 29.54 in 10.0 mi NNW 17.3 mph 25.3 mph N/A   Overcast
7:35 PM 40.1 °F 31.3 °F 28.6 °F 63% 29.58 in 10.0 mi NNW 17.3 mph 23.0 mph N/A   Overcast
7:55 PM 37.2 °F 25.4 °F 28.9 °F 72% 29.59 in 10.0 mi NNW 26.5 mph 32.2 mph N/A   Overcast
8:15 PM 34.9 °F 22.2 °F 27.3 °F 74% 29.61 in 10.0 mi NNW 26.5 mph - N/A   Overcast
8:35 PM 33.4 °F 20.3 °F 25.0 °F 71% 29.62 in 10.0 mi NNW 26.5 mph 31.1 mph N/A   Overcast
8:55 PM 31.6 °F 17.9 °F 25.5 °F 78% 29.64 in 2.5 mi NNW 26.5 mph 32.2 mph N/A Snow Light Snow
9:15 PM 30.0 °F 15.4 °F 24.8 °F 81% 29.66 in 2.5 mi NNW 27.6 mph 34.5 mph N/A Snow Light Snow
9:35 PM 28.4 °F 13.8 °F 25.0 °F 87% 29.66 in 1.8 mi NNW 25.3 mph 32.2 mph N/A Snow Light Snow
9:55 PM 27.9 °F 12.5 °F 23.9 °F 85% 29.66 in 1.2 mi North 27.6 mph 39.1 mph N/A Snow Light Snow
10:15 PM 28.4 °F 13.5 °F 21.6 °F 76% 29.66 in 5.0 mi North 26.5 mph 32.2 mph N/A Snow Light Snow
10:35 PM 29.1 °F 14.2 °F 20.1 °F 69% 29.66 in 10.0 mi North 27.6 mph 34.5 mph N/A Snow Light Snow
10:55 PM 28.8 °F 13.7 °F 19.8 °F 69% 29.67 in 10.0 mi North 27.6 mph 38.0 mph N/A   Overcast
11:15 PM 29.7 °F 16.1 °F 17.4 °F 60% 29.66 in 10.0 mi North 23.0 mph 32.2 mph N/A   Overcast
11:35 PM 29.7 °F 17.4 °F 19.4 °F 66% 29.66 in 10.0 mi NNW 18.4 mph 28.8 mph N/A   Overcast
11:55 PM 29.3 °F 16.2 °F 22.1 °F 75% 29.66 in 10.0 mi NNW 20.7 mph - N/A   Overcast